[[{"header":{"parameterUnit":"m.s-1","parameterCategory":1,"la1":30.2991,"la2":30.254,"lo1":-89.0895,"lo2":-89.0444,"dy":0.0017,"dx":0.0017,"nx":28,"ny":28,"refTime":"2023-04-17T15:00:00:Z","depth":0,"parameterNumber":2,"parameterNumberName":"U-component_of_WINDS"},"data":[0,0,0,0,0,0,0,0,0,0,0,0,0,0,0,0,0,0,0,0,0,0,0,0,0,0,0,0,0,0,0,0,0,0,0,0,0,0,0,0,0,0,0,0,0,0,0,0,0,0,0,0,0,0,0,0,0,0,1.4383,1.4383,0,1.4442,1.4443,1.4443,1.4411,1.441,1.4408,1.4407,1.4473,1.4477,1.448,0,0,0,0,0,0,0,0,0,0,0,0,0,1.4249,1.4252,1.4383,1.4383,1.4384,1.4442,1.4443,1.4444,1.4412,1.441,1.4408,1.4406,1.4472,1.4476,1.448,0,0,0,0,0,0,0,0,0,0,0,0,0,1.4308,1.4253,1.4383,1.4375,1.4375,1.4442,1.4443,1.4444,1.4412,1.441,1.4407,1.4405,1.4471,1.4476,1.4481,1.456,0,0,1.4496,1.4498,0,0,0,0,0,0,0,0,1.4305,1.4313,1.4375,1.4376,1.4376,1.4417,1.442,1.4483,1.4413,1.4398,1.4407,1.4404,1.4457,1.4463,1.448,1.4563,1.4566,1.4496,1.4499,1.4501,1.4503,0,0,0,0,0,0,0,1.4301,1.431,1.4406,1.4376,1.4377,1.4371,1.4377,1.4432,1.4441,1.4399,1.4397,1.4404,1.4457,1.4475,1.4481,1.4567,1.4496,1.45,1.4504,1.4505,1.4723,1.4726,0,0,0,0,0,0,1.4296,1.4307,1.4404,1.4408,1.4333,1.4376,1.4382,1.4406,1.444,1.4443,1.4406,1.4403,1.4468,1.4475,1.4483,1.4581,1.4501,1.4506,1.4509,1.472,1.4724,1.4727,0,0,0,0,0,0,1.4293,1.4305,1.4402,1.4357,1.4369,1.438,1.4408,1.4409,1.4427,1.4445,1.4447,1.4423,1.4466,1.4476,1.4542,1.4583,1.4508,1.4513,1.4717,1.4721,1.4725,1.4776,0,0,0,0,0,0,1.429,1.4304,1.4332,1.4358,1.4371,1.4457,1.441,1.4412,1.4435,1.443,1.4461,1.4464,1.4465,1.4534,1.4547,1.4588,1.4516,1.4713,1.4719,1.4724,1.4771,1.4781,1.479,0,0,0,0,0,1.4285,1.4345,1.4334,1.4346,1.4407,1.446,1.4468,1.4466,1.4438,1.4468,1.4481,1.4463,1.4576,1.4541,1.4555,1.4599,1.4711,1.4717,1.4723,1.4766,1.4779,1.479,0,0,0,0,0,0,1.4326,1.4348,1.4336,1.4406,1.4431,1.4454,1.4492,1.4479,1.4514,1.4509,1.4506,1.4514,1.4583,1.4597,1.4558,1.4679,1.4639,1.4649,1.4667,1.468,1.469,1.4686,1.4521,0,0,0,0,0,1.4342,1.4381,1.4399,1.4459,1.4472,1.448,1.4503,1.4499,1.4526,1.4537,1.4554,1.4583,1.4625,1.4653,1.4692,1.4772,1.4781,1.4809,1.4819,1.4827,1.4836,1.4883,1.4897,1.4747,1.4747,1.4747,0,0,1.4378,1.4395,1.442,1.4468,1.4487,1.453,1.4489,1.4536,1.4569,1.4545,1.4608,1.4622,1.4654,1.4728,1.4761,1.4742,1.4879,1.4835,1.4841,1.4846,1.4891,1.4905,1.4918,1.4752,1.4751,1.475,0,0,1.4465,1.4481,1.4533,1.4554,1.4583,1.4588,1.4601,1.4626,1.4634,1.4697,1.4681,1.4721,1.4793,1.4818,1.484,1.4939,1.4926,1.4952,1.5005,1.5051,1.5063,1.5073,1.5112,1.5126,1.496,1.4961,1.4961,0,1.4507,1.4569,1.4563,1.4612,1.4635,1.4613,1.4669,1.469,1.4731,1.4749,1.4726,1.4818,1.4838,1.4919,1.4943,1.496,1.4978,1.4949,1.5061,1.5071,1.5081,1.5119,1.5133,1.4964,1.4963,1.4963,1.4963,0,1.462,1.4664,1.4703,1.4743,1.477,1.4822,1.4827,1.4856,1.4851,1.4859,1.4926,1.4949,1.4994,1.5013,1.5008,1.5095,1.5082,1.506,1.5021,1.5099,1.5134,1.5148,1.4968,1.4967,1.4966,1.4966,0,0,1.4735,1.4771,1.4786,1.4805,1.4837,1.4872,1.4924,1.4967,1.4994,1.5024,1.507,1.5133,1.5113,1.5138,1.5136,1.5176,1.5258,1.515,1.5151,1.5172,1.5359,1.5378,1.5394,1.5249,1.5251,1.5253,1.5358,0,1.4827,1.4916,1.4914,1.4999,1.5041,1.5022,1.5069,1.5095,1.5105,1.5145,1.5156,1.5202,1.5171,1.5186,1.5225,1.524,1.5296,1.5232,1.5296,1.5298,1.5291,1.5412,1.543,1.5528,1.5371,1.5373,1.5375,0,1.4946,1.4979,1.5068,1.5096,1.5113,1.5155,1.5196,1.5233,1.5263,1.5268,1.5297,1.5289,1.5347,1.5304,1.5385,1.5341,1.5367,1.5379,1.5383,1.5391,1.5343,1.5426,1.5558,1.5574,1.5396,1.5394,1.5393,0,1.5025,1.5091,1.5154,1.5171,1.5204,1.5234,1.525,1.5278,1.5305,1.5341,1.536,1.5403,1.5427,1.5462,1.5468,1.5436,1.5551,1.5508,1.556,1.556,1.5586,1.5585,1.5728,1.5598,1.5598,1.5598,1.5598,0,1.5129,1.5185,1.519,1.5229,1.5293,1.529,1.5354,1.5367,1.5393,1.5436,1.5423,1.5465,1.5468,1.5512,1.5517,1.5586,1.5596,1.5604,1.5605,1.5607,1.5606,1.5626,1.562,1.5602,1.5601,1.56,1.5599,0,1.5229,1.5234,1.5301,1.5327,1.5335,1.5382,1.5405,1.5444,1.5453,1.5508,1.5521,1.5536,1.5588,1.5596,1.5657,1.566,1.5743,1.5736,1.5733,1.5733,1.5785,1.5782,1.5948,1.5971,1.5824,1.5825,1.5826,0,1.5296,1.5339,1.537,1.5397,1.5414,1.5458,1.5486,1.5486,1.5516,1.5555,1.5591,1.564,1.568,1.5763,1.5782,1.5829,1.5825,1.588,1.5832,1.5833,1.583,1.5828,1.5835,1.589,1.5892,1.5893,1.5894,0,1.5417,1.5418,1.5457,1.5498,1.5531,1.5564,1.5595,1.5619,1.5623,1.5658,1.571,1.5741,1.5803,1.5854,1.5901,1.592,1.591,1.5908,1.5924,1.5927,1.5925,1.593,1.5761,1.5905,1.5904,1.5903,1.5903,1.5902,1.5505,1.5543,1.5571,1.5616,1.5639,1.5669,1.5708,1.5721,1.5764,1.5813,1.5811,1.5869,1.5902,1.5964,1.5987,1.6035,1.6017,1.6038,1.6044,1.605,1.6057,1.5915,1.6043,1.6043,1.6042,1.6042,1.6042,0,1.5628,1.5645,1.5686,1.573,1.5766,1.575,1.5784,1.5817,1.5867,1.5898,1.5937,1.5999,1.6049,1.6071,1.6121,1.6155,1.6152,1.6169,1.6168,1.6173,1.6068,1.6051,1.6171,1.6171,1.6171,1.6171,1.6171,1.6171,1.5696,1.5761,1.5766,1.5843,1.5861,1.5916,1.5938,1.5967,1.5991,1.606,1.61,1.6114,1.6142,1.6195,1.6241,1.6247,1.6268,1.6288,1.6291,1.6193,1.618,1.6168,1.6152,1.6291,1.6291,1.6393,1.6394,1.6395]},{"header":{"parameterUnit":"m.s-1","parameterCategory":1,"la1":30.2991,"la2":30.254,"lo1":-89.0895,"lo2":-89.0444,"dy":0.0017,"dx":0.0017,"nx":28,"ny":28,"refTime":"2023-04-17T15:00:00:Z","depth":0,"parameterNumber":3,"parameterNumberName":"V-component_of_WINDS"},"data":[0,0,0,0,0,0,0,0,0,0,0,0,0,0,0,0,0,0,0,0,0,0,0,0,0,0,0,0,0,0,0,0,0,0,0,0,0,0,0,0,0,0,0,0,0,0,0,0,0,0,0,0,0,0,0,0,0,0,-1.1459,-1.1458,0,-1.1422,-1.1422,-1.1421,-1.1418,-1.1418,-1.1419,-1.1419,-1.138,-1.1378,-1.1377,0,0,0,0,0,0,0,0,0,0,0,0,0,-1.1522,-1.1521,-1.1459,-1.1458,-1.1458,-1.1422,-1.1422,-1.1421,-1.1418,-1.1418,-1.1419,-1.1419,-1.138,-1.1378,-1.1377,0,0,0,0,0,0,0,0,0,0,0,0,0,-1.1491,-1.152,-1.1459,-1.1452,-1.1451,-1.1422,-1.1422,-1.1421,-1.1418,-1.1418,-1.1419,-1.142,-1.1381,-1.1379,-1.1377,-1.1352,0,0,-1.137,-1.1369,0,0,0,0,0,0,0,0,-1.1493,-1.1488,-1.1453,-1.1452,-1.1451,-1.1425,-1.143,-1.1398,-1.1418,-1.143,-1.1419,-1.142,-1.1394,-1.1391,-1.1383,-1.135,-1.1348,-1.137,-1.1369,-1.1368,-1.1367,0,0,0,0,0,0,0,-1.1495,-1.149,-1.1444,-1.1453,-1.1451,-1.1449,-1.1446,-1.1424,-1.1409,-1.1429,-1.1429,-1.1425,-1.1394,-1.1385,-1.1382,-1.1348,-1.137,-1.1368,-1.1367,-1.1366,-1.1289,-1.1289,0,0,0,0,0,0,-1.1499,-1.1492,-1.1445,-1.1443,-1.1474,-1.1448,-1.1444,-1.1433,-1.141,-1.1407,-1.1424,-1.1425,-1.1388,-1.1384,-1.138,-1.1348,-1.1368,-1.1366,-1.1365,-1.129,-1.1289,-1.1288,0,0,0,0,0,0,-1.15,-1.1495,-1.1447,-1.1467,-1.1461,-1.1446,-1.1434,-1.1432,-1.1423,-1.1406,-1.1403,-1.1418,-1.1389,-1.1383,-1.1358,-1.1347,-1.1365,-1.1363,-1.1291,-1.129,-1.1289,-1.1284,0,0,0,0,0,0,-1.1502,-1.1495,-1.1486,-1.1467,-1.146,-1.1426,-1.1434,-1.1431,-1.142,-1.142,-1.1399,-1.1396,-1.1389,-1.1362,-1.1356,-1.1344,-1.1361,-1.1292,-1.129,-1.1289,-1.1285,-1.1283,-1.1281,0,0,0,0,0,-1.1504,-1.1487,-1.1486,-1.148,-1.1449,-1.1426,-1.1422,-1.1414,-1.1419,-1.1409,-1.1398,-1.1397,-1.1349,-1.1359,-1.1353,-1.134,-1.1293,-1.1291,-1.1289,-1.1286,-1.1283,-1.1281,0,0,0,0,0,0,-1.1505,-1.1484,-1.1483,-1.1459,-1.1444,-1.1425,-1.1413,-1.1411,-1.1394,-1.1395,-1.1385,-1.138,-1.1355,-1.1345,-1.1357,-1.1313,-1.1321,-1.1318,-1.1321,-1.1318,-1.1316,-1.1318,-1.1359,0,0,0,0,0,-1.1502,-1.1486,-1.1469,-1.1449,-1.1442,-1.1429,-1.1418,-1.1413,-1.1397,-1.139,-1.1377,-1.1361,-1.1342,-1.1329,-1.1311,-1.1284,-1.1278,-1.1271,-1.1269,-1.1268,-1.1265,-1.1247,-1.1243,-1.1283,-1.1283,-1.1283,0,0,-1.1497,-1.1483,-1.1474,-1.1449,-1.1437,-1.1418,-1.1423,-1.1405,-1.139,-1.1387,-1.1363,-1.1352,-1.1333,-1.1306,-1.1293,-1.1297,-1.1252,-1.1265,-1.1264,-1.1262,-1.1245,-1.1241,-1.1238,-1.1281,-1.1282,-1.1282,0,0,-1.1477,-1.1466,-1.1448,-1.1435,-1.1417,-1.1408,-1.1403,-1.1384,-1.1377,-1.1352,-1.1348,-1.1331,-1.1299,-1.1284,-1.1273,-1.1245,-1.1243,-1.124,-1.1228,-1.1211,-1.1208,-1.1205,-1.1193,-1.1189,-1.1237,-1.1237,-1.1237,0,-1.1473,-1.1446,-1.1438,-1.1419,-1.1407,-1.1403,-1.1383,-1.1371,-1.1347,-1.1338,-1.1343,-1.1301,-1.1288,-1.1256,-1.1249,-1.1241,-1.1234,-1.1242,-1.1209,-1.1206,-1.1203,-1.1192,-1.1188,-1.1237,-1.1237,-1.1237,-1.1237,0,-1.144,-1.1422,-1.1409,-1.1386,-1.1372,-1.1353,-1.134,-1.1328,-1.1323,-1.1313,-1.1286,-1.127,-1.1247,-1.124,-1.1235,-1.1206,-1.1209,-1.1211,-1.1219,-1.1199,-1.1188,-1.1184,-1.1236,-1.1236,-1.1236,-1.1236,0,0,-1.1421,-1.1393,-1.1388,-1.1376,-1.1354,-1.1339,-1.1318,-1.1296,-1.1284,-1.1267,-1.1248,-1.122,-1.1221,-1.1208,-1.1202,-1.1187,-1.1163,-1.1191,-1.119,-1.1185,-1.1128,-1.1125,-1.112,-1.1162,-1.1161,-1.1161,-1.1129,0,-1.1398,-1.1362,-1.1353,-1.1321,-1.1303,-1.1298,-1.1279,-1.1263,-1.1253,-1.1234,-1.1222,-1.1202,-1.1206,-1.1198,-1.1183,-1.117,-1.1152,-1.1172,-1.1142,-1.1142,-1.1146,-1.1115,-1.1113,-1.1084,-1.1125,-1.1124,-1.1123,0,-1.1367,-1.1348,-1.1315,-1.1293,-1.1285,-1.1269,-1.1246,-1.1229,-1.121,-1.1203,-1.1187,-1.1182,-1.1158,-1.1167,-1.1133,-1.1147,-1.1134,-1.1125,-1.1124,-1.112,-1.1131,-1.1109,-1.1074,-1.1069,-1.1117,-1.1117,-1.1118,0,-1.1354,-1.1321,-1.1296,-1.1286,-1.1261,-1.1249,-1.1238,-1.1219,-1.1205,-1.1185,-1.1176,-1.1153,-1.1141,-1.1123,-1.111,-1.1119,-1.1076,-1.1085,-1.1068,-1.1068,-1.1059,-1.106,-1.1021,-1.1053,-1.1053,-1.1053,-1.1053,0,-1.1328,-1.1307,-1.129,-1.1274,-1.125,-1.1239,-1.1215,-1.1203,-1.1186,-1.1167,-1.1161,-1.1143,-1.1129,-1.1108,-1.1098,-1.107,-1.1065,-1.1057,-1.1055,-1.1057,-1.1058,-1.1048,-1.1049,-1.1052,-1.1052,-1.1053,-1.1053,0,-1.131,-1.1297,-1.1269,-1.1247,-1.1241,-1.1224,-1.1204,-1.1187,-1.1176,-1.1152,-1.1146,-1.1128,-1.1103,-1.1089,-1.1058,-1.1051,-1.1019,-1.1018,-1.1026,-1.1024,-1.1008,-1.1009,-1.096,-1.0952,-1.0991,-1.0991,-1.0991,0,-1.1294,-1.1278,-1.1253,-1.124,-1.1228,-1.1207,-1.1193,-1.1181,-1.1166,-1.1141,-1.1127,-1.1102,-1.1081,-1.1041,-1.1025,-1.1,-1.0998,-1.0982,-1.0994,-1.0996,-1.0995,-1.0996,-1.0993,-1.098,-1.098,-1.0979,-1.0979,0,-1.1266,-1.126,-1.124,-1.1217,-1.12,-1.1182,-1.1163,-1.1152,-1.1137,-1.112,-1.1095,-1.1078,-1.1046,-1.102,-1.0994,-1.098,-1.0976,-1.0975,-1.097,-1.0972,-1.0976,-1.0971,-1.1018,-1.0977,-1.0977,-1.0977,-1.0977,-1.0977,-1.1247,-1.1232,-1.1211,-1.1188,-1.1173,-1.1155,-1.1138,-1.1124,-1.1103,-1.1076,-1.107,-1.1042,-1.102,-1.0984,-1.097,-1.0947,-1.095,-1.0942,-1.094,-1.0938,-1.0936,-1.098,-1.0942,-1.0942,-1.0942,-1.0942,-1.0943,0,-1.1218,-1.1204,-1.1183,-1.1157,-1.1138,-1.1137,-1.1115,-1.1099,-1.1075,-1.1055,-1.1034,-1.1004,-1.0978,-1.0959,-1.0932,-1.0917,-1.0914,-1.091,-1.091,-1.0907,-1.0937,-1.0943,-1.0913,-1.0913,-1.0913,-1.0913,-1.0913,-1.0913,-1.12,-1.1173,-1.1164,-1.1128,-1.1114,-1.1087,-1.1075,-1.1057,-1.1041,-1.1007,-1.0986,-1.0973,-1.0953,-1.0924,-1.0899,-1.0894,-1.0884,-1.088,-1.0874,-1.0902,-1.0905,-1.0908,-1.0914,-1.0878,-1.0878,-1.0846,-1.0845,-1.0845]}]]